Volver al catálogo

FENGYUN 1C DEB

ActivoPO
NORAD 30454·DEBRIS·🇨🇳 China

Lanzado May 10, 1999 desde Taiyuan Satellite Launch Center

Loading…

Próximos Pases (próximas 24 horas)

TLE

ActualizadoSource: Space-Track

Época: Sep 14, 2026, 15:00 UTC

1 30454U 99025AFR 26257.62537931  .00003860  00000-0  16459-2 0  9993
2 30454  98.1355 209.6519 0168030 109.6744  63.9050 14.18268614998673

Sigue FENGYUN 1C DEB en tiempo real con AllMySat

Download on the App Store